SCP
0 0 0 0 0 0 0 0 0 0 0 0 0 0 0 0 0 0 0 0 0 0 0 0 0 0 0 0 0 0 0 1 1 1 1 1 1 0 0 0 0 0 0 0
0 0 0 0 0 0 0 0 0 0 0 0 0 0 0 0 0 0 0 0 0 0 0 0 0 0 0 0 0 0 0 1 1 0 0 0 0 0 0 0 0 0 0 0
0 0 0 0 0 0 0 0 0 0 0 0 0 0 0 0 0 0 0 0 0 0 0 0 1 0 0 0 0 0 0 0 1 0 0 0 0 0 0 0 0 0 0 0
0 0 0 0 0 0 0 0 0 0 0 0 0 0 0 0 0 0 0 0 0 0 0 0 0 1 0 0 0 -0 0 0 0 0 0 0 0 0 0 0 0 -0 0 0
0 0 0 0 0 0 0 0 0 0 0 0 0 0 0 0 0 0 0 0 0 -0 -0 -0 0 1 0 0 0 0 0 0 0 0 0 0 0 0 0 0 0 0 0 0
0 0 0 0 0 0 0 0 0 0 0 0 0 0 0 0 0 0 0 -0 0 0 0 0 0 0 0 0 0 0 0 0 0 0 0 0 0 0 0 0 0 0 0 0
0 0 0 0 0 0 0 0 0 0 0 0 0 0 0 0 0 0 0 0 0 0 0 0 -0 -0 -0 0 1 0 0 0 0 0 0 0 0 0 0 0 0 0 0 0
0 0 0 0 0 0 0 0 0 0 0 0 0 0 0 0 0 0 0 0 0 0 0 0 0 0 0 0 0 0 0 0 0 0 0 0 0 0 0 0 0 0 0 0
0 0 0 0 0 0 0 0 0 0 0 0 0 0 0 0 0 0 0 0 0 0 0 0 0 0 0 0 0 0 0 0 0 0 0 0 0 0 0 0 0 0 0 0
0 0 0 0 0 0 0 0 0 0 0 0 0 0 0 0 0 0 0 0 0 0 0 0 0 0 0 0 0 0 0 0 0 0 0 0 0 0 0 0 0 0 0 0
0 0 0 0 0 0 0 0 0 0 0 0 0 0 0 0 0 0 0 0 0 0 0 0 0 0 0 0 0 0 1 0 0 0 0 0 0 0 0 0 0 0 0 0
0 0 0 0 0 0 0 0 0 0 0 0 0 0 0 0 0 0 0 0 0 -0 -0 0 0 0 0 0 0 -0 0 0 0 0 0 0 0 0 0 0 0 0 0 0
0 0 0 0 0 0 0 0 0 0 0 0 0 0 0 0 0 0 0 0 0 0 -0 -0 0 0 0 -0 -0 -0 0 0 0 0 0 0 0 0 0 0 0 0 0 0
0 0 0 0 0 0 0 0 0 0 0 0 0 0 0 0 0 0 0 0 0 0 0 -0 -0 0 0 -0 -0 -0 -0 0 0 0 0 0 0 -0 -0 0 0 0 0 0
0 0 0 0 0 0 0 0 0 0 0 0 0 0 0 0 0 0 0 0 -0 -0 0 -0 -0 -0 -0 0 0 -0 0 -0 -0 -0 -0 -0 -0 -0 -0 -0 -0 -0 -0 0
0 0 0 0 0 0 0 0 0 0 0 0 0 0 0 0 0 0 0 0 0 -0 -0 -0 -0 -0 -0 0 -0 -0 -0 -0 -0 -0 -0 -0 -0 -0 -0 -0 -0 0 0 0
0 0 0 0 0 0 0 0 0 0 0 0 0 0 0 0 0 0 0 -0 -0 0 0 -0 -0 -0 -0 -0 -0 -0 -0 0 0 -0 -0 0 0 0 0 0 0 0 0 0
0 0 0 0 0 0 0 0 0 0 0 0 0 0 0 0 0 0 0 0 0 0 0 0 -0 -0 -0 -0 0 0 0 0 -0 0 0 0 0 0 0 0 0 0 0 0
0 0 0 0 0 0 0 0 0 0 0 0 0 0 0 0 0 0 0 0 0 0 0 0 0 0 0 0 0 0 0 0 0 0 0 0 0 0 0 0 0 0 0 0
0 0 0 0 0 0 0 0 0 0 0 0 0 0 0 0 0 0 0 0 0 0 0 0 0 0 0 0 0 0 0 0 0 0 0 0 0 0 0 0 0 0 0 0
0 0 0 0 0 0 0 0 0 0 0 0 0 0 0 0 0 0 0 0 0 0 0 0 0 0 0 0 0 0 0 0 0 0 0 0 0 0 0 0 0 0 0 0
0 0 0 0 0 0 0 0 0 0 0 0 0 0 0 0 0 0 0 0 0 0 0 -0 -0 0 0 -0 0 0 0 0 0 0 0 0 0 0 0 0 0 0 0 0
0 0 0 0 0 0 0 0 0 0 0 0 0 0 0 0 0 0 0 0 0 -0 0 0 -0 -0 -0 0 -0 -0 -0 -0 -0 0 0 0 0 0 0 0 0 0 0 0
0 0 0 0 0 0 0 0 0 0 0 0 0 0 0 0 0 0 0 0 -0 -0 -0 -0 -0 -0 -0 -0 -0 -0 -0 0 0 0 0 0 0 0 0 0 0 0 0 0
0 0 -0 0 0 0 0 0 0 0 0 0 0 0 0 0 0 0 0 0 -0 -0 -0 -0 -0 0 -0 -0 0 0 -0 0 0 0 0 0 0 0 0 0 0 0 0 0
0 0 0 0 0 0 0 0 -0 -0 -0 -0 -0 0 0 0 0 0 0 0 -0 -0 -0 -0 0 0 0 -0 0 0 0 0 0 0 0 0 0 0 0 0 0 0 0 0
0 0 -0 -0 -0 -0 -0 -0 -0 0 0 -0 -0 0 0 0 0 0 -0 0 0 0 -0 -0 -0 -0 0 0 -0 -0 0 0 0 0 0 0 0 0 0 0 0 0 0 0
Wind_Speed_500mb
10 9 3 7 11 14 15 11 12 7 15 9 4 4 10 18 24 21 23 24 20 18 20 20 18 28 37 38 30 29 28 22 35 50 58 54 52 47 40 31 15 38 45 41
7 4 5 8 10 11 6 6 8 16 6 4 7 7 15 25 30 33 30 27 23 19 21 23 28 35 37 33 25 25 29 25 28 36 51 56 51 34 35 37 41 37 41 32
10 6 12 7 9 8 6 1 4 12 12 13 6 10 19 26 29 34 39 41 41 44 45 47 46 43 41 41 39 38 35 27 29 38 56 56 43 31 19 26 35 39 43 35
9 4 11 11 10 12 19 6 6 11 8 13 13 10 15 20 23 30 37 44 47 47 48 44 40 44 49 49 44 34 26 25 27 41 58 47 29 35 36 34 31 36 32 27
7 11 2 5 7 12 10 5 4 9 7 6 5 2 12 16 25 34 42 46 49 53 58 60 55 45 42 48 45 33 29 27 29 40 50 48 57 44 45 38 40 34 31 30
5 11 19 19 10 3 11 2 16 13 9 9 9 3 9 19 24 33 37 47 56 59 57 57 56 57 48 44 44 42 39 41 42 40 43 43 40 47 52 48 51 42 40 33
8 8 10 6 6 10 11 12 34 23 16 12 7 10 21 23 29 34 43 53 57 54 54 52 59 65 62 50 51 49 45 49 46 43 49 45 43 46 49 45 47 52 44 36
6 4 11 4 3 13 10 27 28 23 13 12 18 21 22 23 29 39 48 53 51 54 58 61 71 79 74 65 56 56 39 50 41 48 52 46 48 45 42 45 52 49 48 43
10 8 9 8 17 29 33 36 26 20 19 27 29 27 23 27 35 41 47 45 54 62 69 72 70 70 74 77 59 63 48 50 56 60 59 53 55 59 56 49 48 49 49 49
6 6 2 23 28 29 25 23 18 12 17 22 25 17 22 27 32 38 39 47 47 48 53 64 73 84 76 91 70 75 74 54 63 72 68 66 67 53 49 48 48 49 50 46
3 3 8 13 20 21 15 9 9 11 10 9 12 17 21 28 29 31 36 31 37 44 53 63 66 79 66 59 50 53 56 65 67 66 56 52 48 39 35 36 33 35 36 37
10 30 12 26 23 18 13 9 10 9 11 12 16 15 22 26 22 26 19 25 35 36 43 57 78 52 48 21 38 63 69 66 57 56 44 49 47 44 30 25 26 30 32 28
13 49 21 31 24 18 12 10 12 13 14 14 14 20 26 23 15 11 11 17 23 33 42 51 53 80 62 63 71 72 75 67 60 56 54 48 45 45 46 42 41 36 29 24
41 46 31 36 20 22 15 15 15 12 11 14 20 25 24 17 10 10 11 11 17 20 35 45 51 66 70 71 72 71 74 63 59 47 43 40 31 31 37 43 43 36 31 25
52 24 31 30 25 27 24 21 17 15 18 26 29 29 20 18 13 10 6 3 18 28 35 37 48 68 70 61 54 51 55 50 47 43 35 28 28 29 32 33 33 28 24 22
44 20 31 32 32 31 29 25 21 20 26 24 29 27 20 18 13 15 8 14 12 22 21 18 19 34 43 43 36 31 36 40 40 35 25 30 27 26 27 24 22 19 16 13
45 30 33 36 37 34 32 24 20 20 23 28 31 26 19 14 14 19 20 23 20 18 20 18 20 20 27 29 29 30 28 29 24 26 25 22 16 13 14 18 19 17 11 9
23 15 19 21 27 32 28 24 18 19 24 33 31 22 14 16 20 22 30 26 24 21 18 17 20 26 29 29 25 23 24 24 21 18 15 11 8 9 9 6 7 6 4 11
15 14 16 23 23 27 24 20 20 26 30 33 29 15 10 16 23 29 34 28 28 25 24 24 23 20 18 18 16 17 20 19 12 10 11 7 4 7 9 8 4 3 4 3
9 10 13 16 19 21 22 20 24 30 30 28 24 16 11 23 26 31 33 34 29 27 28 25 23 19 18 18 15 14 13 15 14 14 11 12 15 16 14 11 9 7 9 9
8 13 16 16 17 19 21 23 28 30 28 21 19 10 8 16 29 36 37 31 25 25 30 28 21 17 12 7 12 9 8 5 5 4 4 6 8 7 5 4 4 6 7 7
12 15 16 18 22 25 25 27 29 27 21 20 15 12 13 17 29 31 28 28 26 22 21 23 17 12 9 7 1 5 5 5 8 8 7 9 9 6 5 8 10 12 14 15
15 15 16 18 21 23 24 23 20 18 17 17 14 10 21 33 37 27 28 29 24 20 19 16 13 11 12 7 3 7 9 6 5 7 11 13 13 12 13 14 18 19 23 26
14 17 16 14 15 16 16 14 13 10 8 5 18 25 26 41 38 19 24 24 23 19 18 11 9 9 9 12 18 15 7 8 12 16 17 24 24 24 24 25 25 24 29 34
13 18 26 21 16 11 8 9 7 9 20 29 31 30 33 27 24 26 19 14 15 13 14 12 6 4 6 10 13 11 13 16 18 20 23 24 23 23 25 29 33 28 30 31
14 14 18 22 15 13 13 10 15 27 32 26 27 29 24 10 15 17 13 14 19 16 11 6 1 5 6 7 12 17 20 23 26 28 30 29 27 29 31 24 24 26 26 33
14 17 15 19 26 32 32 30 30 29 28 29 31 11 6 8 14 16 18 16 13 7 5 4 6 8 8 10 16 24 25 25 29 32 32 34 36 34 34 30 29 30 24 27
Wind_Direction_500mb
250 239 254 225 225 184 189 190 170 223 171 213 174 26 360 2 7 8 17 21 16 358 350 344 310 292 296 297 298 308 314 309 271 255 248 237 218 193 177 185 259 311 280 260
278 319 168 255 255 170 150 163 105 133 120 173 125 106 36 20 12 7 1 1 9 8 359 347 335 329 325 318 319 322 314 303 272 253 239 230 212 172 198 235 257 281 267 244
259 339 339 305 213 188 129 15 167 166 191 151 166 96 41 18 10 0 358 0 359 355 348 342 334 329 320 309 311 313 307 299 269 243 228 215 203 238 222 212 215 224 236 230
210 17 248 267 266 130 117 50 41 83 104 159 179 136 53 23 3 359 355 353 352 344 337 339 341 335 323 313 313 313 304 299 262 225 207 201 213 203 195 185 204 208 218 215
174 190 139 317 204 177 156 219 285 125 119 122 123 200 283 352 349 348 348 345 336 331 328 327 329 326 323 309 302 287 270 264 236 214 210 235 250 224 210 185 185 198 194 189
135 176 201 214 172 33 129 250 203 168 135 105 124 53 267 331 334 343 338 330 328 327 329 331 338 335 319 299 291 274 259 248 240 236 236 237 215 194 190 189 180 182 179 179
176 229 285 232 267 151 166 232 169 167 162 182 184 227 306 320 339 336 326 325 324 324 324 325 328 325 333 300 276 276 277 250 236 235 231 227 203 190 186 178 174 173 171 173
114 108 247 53 101 174 170 129 155 179 192 237 272 286 294 313 320 320 326 321 318 318 313 309 310 313 307 313 275 261 254 252 222 247 205 195 193 190 178 173 173 174 169 162
177 199 278 352 113 124 136 137 150 178 219 244 257 271 291 305 323 324 321 322 323 320 317 321 322 314 302 288 295 237 231 241 251 218 204 199 188 182 176 182 177 174 172 169
80 233 90 108 119 136 145 152 163 216 257 258 252 279 294 316 321 328 335 335 341 341 340 336 335 323 300 299 275 235 234 241 227 206 199 188 180 168 169 177 179 180 177 174
296 26 121 142 149 151 153 167 210 249 273 279 274 292 313 322 331 343 346 354 351 354 348 344 344 330 315 293 240 218 205 205 200 180 156 147 142 151 173 177 182 179 180 179
206 197 163 174 171 169 185 241 274 273 277 277 287 301 317 324 338 345 354 359 9 10 10 16 16 6 351 307 174 156 150 142 129 128 141 128 126 127 137 143 150 149 145 143
193 177 175 167 175 188 208 225 249 250 259 275 288 307 318 323 326 338 17 14 18 19 35 33 34 51 53 84 111 107 111 104 116 116 112 111 117 131 135 137 137 131 132 138
160 157 152 172 188 196 214 226 220 239 256 283 301 318 325 321 292 310 1 352 359 43 61 50 56 65 66 77 88 98 103 104 101 102 105 112 133 155 158 159 159 157 161 157
162 167 189 186 197 201 207 211 233 259 284 307 317 313 320 310 275 252 302 24 83 94 84 73 72 84 81 78 89 92 95 98 103 129 143 154 165 166 164 170 166 165 169 182
179 184 177 192 201 202 208 218 242 282 310 315 331 338 318 287 247 219 215 163 120 120 100 91 79 91 94 99 102 107 107 113 126 138 151 157 162 164 164 165 170 174 171 180
166 172 186 195 201 209 219 233 258 294 314 319 318 322 298 260 205 190 177 160 153 129 115 109 105 107 107 111 107 107 120 138 145 162 164 165 176 180 191 212 209 201 193 214
197 216 226 240 236 226 235 247 266 299 318 327 324 318 280 212 191 180 169 158 152 143 138 140 125 108 101 99 101 110 137 147 145 145 154 160 178 203 211 200 155 152 238 273
205 229 231 229 246 246 249 253 282 309 321 326 327 315 263 206 192 183 173 170 159 152 148 147 144 130 111 98 100 113 122 119 113 116 112 73 113 73 122 133 146 223 309 303
236 260 272 270 253 247 250 263 284 301 317 324 325 310 256 203 191 190 174 165 161 154 156 149 152 148 115 82 59 93 112 100 89 125 117 77 68 74 79 85 86 80 44 23
277 288 286 274 265 258 263 273 287 300 310 315 318 272 251 197 189 175 163 158 149 162 158 168 160 162 164 126 53 109 126 114 61 45 13 25 34 44 49 36 355 292 281 287
287 292 286 267 263 264 268 276 284 291 297 302 298 240 230 184 155 148 152 156 141 134 159 171 166 169 210 175 82 118 130 91 70 56 47 22 22 10 316 316 338 325 312 307
310 309 299 283 273 270 271 272 271 275 288 295 285 234 182 151 138 144 157 145 138 159 150 152 169 181 181 180 221 145 153 125 69 9 350 334 325 323 314 309 300 312 318 313
24 20 6 331 297 277 267 258 253 265 271 104 117 133 159 147 133 154 144 145 156 151 137 131 140 166 191 199 192 200 235 296 304 309 317 336 317 300 292 289 296 312 316 300
33 30 28 26 16 342 272 231 215 200 153 135 134 124 117 138 146 136 132 150 159 163 164 158 140 112 115 157 198 250 281 292 305 312 325 331 317 304 304 308 305 301 310 313
26 18 16 9 21 52 96 115 137 141 148 153 154 138 125 103 139 139 152 140 152 152 156 167 238 317 311 284 288 288 286 290 299 308 315 309 298 309 305 304 301 301 310 327
23 28 36 57 87 92 89 99 109 120 135 140 149 134 352 109 128 145 145 148 159 164 217 276 267 293 290 312 306 312 301 298 306 305 301 305 309 298 291 290 290 305 303 313
Wind_Speed_850mb
10 9 3 7 11 14 15 11 12 7 15 9 4 4 10 18 24 21 23 24 20 18 20 20 18 28 37 38 30 29 28 22 35 50 58 54 52 47 40 31 15 38 45 41
7 4 5 8 10 11 6 6 8 16 6 4 7 7 15 25 30 33 30 27 23 19 21 23 28 35 37 33 25 25 29 25 28 36 51 56 51 34 35 37 41 37 41 32
10 6 12 7 9 8 6 1 4 12 12 13 6 10 19 26 29 34 39 41 41 44 45 47 46 43 41 41 39 38 35 27 29 38 56 56 43 31 19 26 35 39 43 35
9 4 11 11 10 12 19 6 6 11 8 13 13 10 15 20 23 30 37 44 47 47 48 44 40 44 49 49 44 34 26 25 27 41 58 47 29 35 36 34 31 36 32 27
7 11 2 5 7 12 10 5 4 9 7 6 5 2 12 16 25 34 42 46 49 53 58 60 55 45 42 48 45 33 29 27 29 40 50 48 57 44 45 38 40 34 31 30
5 11 19 19 10 3 11 2 16 13 9 9 9 3 9 19 24 33 37 47 56 59 57 57 56 57 48 44 44 42 39 41 42 40 43 43 40 47 52 48 51 42 40 33
8 8 10 6 6 10 11 12 34 23 16 12 7 10 21 23 29 34 43 53 57 54 54 52 59 65 62 50 51 49 45 49 46 43 49 45 43 46 49 45 47 52 44 36
6 4 11 4 3 13 10 27 28 23 13 12 18 21 22 23 29 39 48 53 51 54 58 61 71 79 74 65 56 56 39 50 41 48 52 46 48 45 42 45 52 49 48 43
10 8 9 8 17 29 33 36 26 20 19 27 29 27 23 27 35 41 47 45 54 62 69 72 70 70 74 77 59 63 48 50 56 60 59 53 55 59 56 49 48 49 49 49
6 6 2 23 28 29 25 23 18 12 17 22 25 17 22 27 32 38 39 47 47 48 53 64 73 84 76 91 70 75 74 54 63 72 68 66 67 53 49 48 48 49 50 46
3 3 8 13 20 21 15 9 9 11 10 9 12 17 21 28 29 31 36 31 37 44 53 63 66 79 66 59 50 53 56 65 67 66 56 52 48 39 35 36 33 35 36 37
10 30 12 26 23 18 13 9 10 9 11 12 16 15 22 26 22 26 19 25 35 36 43 57 78 52 48 21 38 63 69 66 57 56 44 49 47 44 30 25 26 30 32 28
13 49 21 31 24 18 12 10 12 13 14 14 14 20 26 23 15 11 11 17 23 33 42 51 53 80 62 63 71 72 75 67 60 56 54 48 45 45 46 42 41 36 29 24
41 46 31 36 20 22 15 15 15 12 11 14 20 25 24 17 10 10 11 11 17 20 35 45 51 66 70 71 72 71 74 63 59 47 43 40 31 31 37 43 43 36 31 25
52 24 31 30 25 27 24 21 17 15 18 26 29 29 20 18 13 10 6 3 18 28 35 37 48 68 70 61 54 51 55 50 47 43 35 28 28 29 32 33 33 28 24 22
44 20 31 32 32 31 29 25 21 20 26 24 29 27 20 18 13 15 8 14 12 22 21 18 19 34 43 43 36 31 36 40 40 35 25 30 27 26 27 24 22 19 16 13
45 30 33 36 37 34 32 24 20 20 23 28 31 26 19 14 14 19 20 23 20 18 20 18 20 20 27 29 29 30 28 29 24 26 25 22 16 13 14 18 19 17 11 9
23 15 19 21 27 32 28 24 18 19 24 33 31 22 14 16 20 22 30 26 24 21 18 17 20 26 29 29 25 23 24 24 21 18 15 11 8 9 9 6 7 6 4 11
15 14 16 23 23 27 24 20 20 26 30 33 29 15 10 16 23 29 34 28 28 25 24 24 23 20 18 18 16 17 20 19 12 10 11 7 4 7 9 8 4 3 4 3
9 10 13 16 19 21 22 20 24 30 30 28 24 16 11 23 26 31 33 34 29 27 28 25 23 19 18 18 15 14 13 15 14 14 11 12 15 16 14 11 9 7 9 9
8 13 16 16 17 19 21 23 28 30 28 21 19 10 8 16 29 36 37 31 25 25 30 28 21 17 12 7 12 9 8 5 5 4 4 6 8 7 5 4 4 6 7 7
12 15 16 18 22 25 25 27 29 27 21 20 15 12 13 17 29 31 28 28 26 22 21 23 17 12 9 7 1 5 5 5 8 8 7 9 9 6 5 8 10 12 14 15
15 15 16 18 21 23 24 23 20 18 17 17 14 10 21 33 37 27 28 29 24 20 19 16 13 11 12 7 3 7 9 6 5 7 11 13 13 12 13 14 18 19 23 26
14 17 16 14 15 16 16 14 13 10 8 5 18 25 26 41 38 19 24 24 23 19 18 11 9 9 9 12 18 15 7 8 12 16 17 24 24 24 24 25 25 24 29 34
13 18 26 21 16 11 8 9 7 9 20 29 31 30 33 27 24 26 19 14 15 13 14 12 6 4 6 10 13 11 13 16 18 20 23 24 23 23 25 29 33 28 30 31
14 14 18 22 15 13 13 10 15 27 32 26 27 29 24 10 15 17 13 14 19 16 11 6 1 5 6 7 12 17 20 23 26 28 30 29 27 29 31 24 24 26 26 33
14 17 15 19 26 32 32 30 30 29 28 29 31 11 6 8 14 16 18 16 13 7 5 4 6 8 8 10 16 24 25 25 29 32 32 34 36 34 34 30 29 30 24 27
Wind_Direction_850mb
250 239 254 225 225 184 189 190 170 223 171 213 174 26 360 2 7 8 17 21 16 358 350 344 310 292 296 297 298 308 314 309 271 255 248 237 218 193 177 185 259 311 280 260
278 319 168 255 255 170 150 163 105 133 120 173 125 106 36 20 12 7 1 1 9 8 359 347 335 329 325 318 319 322 314 303 272 253 239 230 212 172 198 235 257 281 267 244
259 339 339 305 213 188 129 15 167 166 191 151 166 96 41 18 10 0 358 0 359 355 348 342 334 329 320 309 311 313 307 299 269 243 228 215 203 238 222 212 215 224 236 230
210 17 248 267 266 130 117 50 41 83 104 159 179 136 53 23 3 359 355 353 352 344 337 339 341 335 323 313 313 313 304 299 262 225 207 201 213 203 195 185 204 208 218 215
174 190 139 317 204 177 156 219 285 125 119 122 123 200 283 352 349 348 348 345 336 331 328 327 329 326 323 309 302 287 270 264 236 214 210 235 250 224 210 185 185 198 194 189
135 176 201 214 172 33 129 250 203 168 135 105 124 53 267 331 334 343 338 330 328 327 329 331 338 335 319 299 291 274 259 248 240 236 236 237 215 194 190 189 180 182 179 179
176 229 285 232 267 151 166 232 169 167 162 182 184 227 306 320 339 336 326 325 324 324 324 325 328 325 333 300 276 276 277 250 236 235 231 227 203 190 186 178 174 173 171 173
114 108 247 53 101 174 170 129 155 179 192 237 272 286 294 313 320 320 326 321 318 318 313 309 310 313 307 313 275 261 254 252 222 247 205 195 193 190 178 173 173 174 169 162
177 199 278 352 113 124 136 137 150 178 219 244 257 271 291 305 323 324 321 322 323 320 317 321 322 314 302 288 295 237 231 241 251 218 204 199 188 182 176 182 177 174 172 169
80 233 90 108 119 136 145 152 163 216 257 258 252 279 294 316 321 328 335 335 341 341 340 336 335 323 300 299 275 235 234 241 227 206 199 188 180 168 169 177 179 180 177 174
296 26 121 142 149 151 153 167 210 249 273 279 274 292 313 322 331 343 346 354 351 354 348 344 344 330 315 293 240 218 205 205 200 180 156 147 142 151 173 177 182 179 180 179
206 197 163 174 171 169 185 241 274 273 277 277 287 301 317 324 338 345 354 359 9 10 10 16 16 6 351 307 174 156 150 142 129 128 141 128 126 127 137 143 150 149 145 143
193 177 175 167 175 188 208 225 249 250 259 275 288 307 318 323 326 338 17 14 18 19 35 33 34 51 53 84 111 107 111 104 116 116 112 111 117 131 135 137 137 131 132 138
160 157 152 172 188 196 214 226 220 239 256 283 301 318 325 321 292 310 1 352 359 43 61 50 56 65 66 77 88 98 103 104 101 102 105 112 133 155 158 159 159 157 161 157
162 167 189 186 197 201 207 211 233 259 284 307 317 313 320 310 275 252 302 24 83 94 84 73 72 84 81 78 89 92 95 98 103 129 143 154 165 166 164 170 166 165 169 182
179 184 177 192 201 202 208 218 242 282 310 315 331 338 318 287 247 219 215 163 120 120 100 91 79 91 94 99 102 107 107 113 126 138 151 157 162 164 164 165 170 174 171 180
166 172 186 195 201 209 219 233 258 294 314 319 318 322 298 260 205 190 177 160 153 129 115 109 105 107 107 111 107 107 120 138 145 162 164 165 176 180 191 212 209 201 193 214
197 216 226 240 236 226 235 247 266 299 318 327 324 318 280 212 191 180 169 158 152 143 138 140 125 108 101 99 101 110 137 147 145 145 154 160 178 203 211 200 155 152 238 273
205 229 231 229 246 246 249 253 282 309 321 326 327 315 263 206 192 183 173 170 159 152 148 147 144 130 111 98 100 113 122 119 113 116 112 73 113 73 122 133 146 223 309 303
236 260 272 270 253 247 250 263 284 301 317 324 325 310 256 203 191 190 174 165 161 154 156 149 152 148 115 82 59 93 112 100 89 125 117 77 68 74 79 85 86 80 44 23
277 288 286 274 265 258 263 273 287 300 310 315 318 272 251 197 189 175 163 158 149 162 158 168 160 162 164 126 53 109 126 114 61 45 13 25 34 44 49 36 355 292 281 287
287 292 286 267 263 264 268 276 284 291 297 302 298 240 230 184 155 148 152 156 141 134 159 171 166 169 210 175 82 118 130 91 70 56 47 22 22 10 316 316 338 325 312 307
310 309 299 283 273 270 271 272 271 275 288 295 285 234 182 151 138 144 157 145 138 159 150 152 169 181 181 180 221 145 153 125 69 9 350 334 325 323 314 309 300 312 318 313
24 20 6 331 297 277 267 258 253 265 271 104 117 133 159 147 133 154 144 145 156 151 137 131 140 166 191 199 192 200 235 296 304 309 317 336 317 300 292 289 296 312 316 300
33 30 28 26 16 342 272 231 215 200 153 135 134 124 117 138 146 136 132 150 159 163 164 158 140 112 115 157 198 250 281 292 305 312 325 331 317 304 304 308 305 301 310 313
26 18 16 9 21 52 96 115 137 141 148 153 154 138 125 103 139 139 152 140 152 152 156 167 238 317 311 284 288 288 286 290 299 308 315 309 298 309 305 304 301 301 310 327
23 28 36 57 87 92 89 99 109 120 135 140 149 134 352 109 128 145 145 148 159 164 217 276 267 293 290 312 306 312 301 298 306 305 301 305 309 298 291 290 290 305 303 313